Regional Weather Roundup
Issued by NWS Mt. Holly, NJ

Home | Current Version | Previous Version | Text Only | Print | Product List | Glossary On
Versions: 1 2 3 4 5 6 7 8 9 10 11 12 13 14 15 16 17 18 19 20 21 22 23 24 25 26 27
000
ASUS41 KPHI 021212
RWRPHI

REGIONAL WEATHER ROUNDUP
NATIONAL WEATHER SERVICE MOUNT HOLLY NJ
800 AM EDT MON MAY 02 2016

NOTE:  "FAIR" INDICATES FEW OR NO CLOUDS BELOW 12,000 FEET WITH NO
SIGNIFICANT WEATHER AND/OR OBSTRUCTIONS TO VISIBILITY.

 * = STATION DOES NOT REPORT PRECIPITATION (E.G. RAIN, SNOW, ETC.)
        OR FOG.

NJZ015>026-021300-
SOUTHERN NEW JERSEY

CITY           SKY/WX    TMP DP  RH WIND       PRES   REMARKS
POMONA         FOG       50  49  96 E8        29.99F VSB 1/2
6HR MIN TEMP:  48; 6HR MAX TEMP:  50;

WILDWOOD*      CLOUDY   N/A N/A N/A E7        29.99S
MILLVILLE      CLOUDY    49  48  97 E3        30.00R FOG
WRIGHTSTOWN    FOG       47  45  94 E6        29.96F VSB 1/4
MOUNT HOLLY    CLOUDY    47  46  97 E3        29.99F
TRENTON        CLOUDY    47  45  93 SE7       29.99S FOG
6HR MIN TEMP:  46; 6HR MAX TEMP:  47; 6HR PCP:  0.01;


$$
NJZ001>014-021300-
NORTHERN NEW JERSEY

CITY           SKY/WX    TMP DP  RH WIND       PRES   REMARKS
SUSSEX         CLOUDY    46  43  89 NE7       29.97F
ANDOVER*         N/A     46  44  93 SW3       29.98R
MORRISTOWN     CLOUDY    45  45 100 CALM      30.00S FOG
NEWARK         CLOUDY    49  45  86 VRB3      30.00F FOG
TETERBORO      CLOUDY    47  43  86 E5        29.99F FOG
CALDWELL       CLOUDY    46  43  89 SE5       30.00F FOG
SOMERVILLE     CLOUDY    46  45  96 S3        29.99R FOG
ALLAIRE*       CLOUDY    48  46  93 E6        30.01F FOG
TOMS RIVER*    CLOUDY    48  45  87 E5        30.00F

$$
PAZ043-044-047-054-055-060>062-066>071-021300-
EASTERN PENNSYLVANIA

CITY           SKY/WX    TMP DP  RH WIND       PRES   REMARKS
PHILADELPHIA   CLOUDY    49  45  86 E6        30.00F
6HR MIN TEMP:  48; 6HR MAX TEMP:  49; 6HR PCP: TRACE;

NORTH PHILA    CLOUDY    49  46  90 SE5       30.01S FOG
BLUE BELL*     CLOUDY    45  45 100 SE5       29.98F VSB 1/2
DOYLESTOWN     FOG       44  44 100 CALM      29.98F VSB 1/2
QUAKERTOWN*    CLOUDY    45  45 100 SE3       29.99F VSB<1/4
PERKASIE*      FOG       45  45 100 SE5       29.99F VSB<1/4
POTTSTOWN      CLOUDY    46  46 100 VRB3      30.00S FOG
LANCASTER      FOG       49  49 100 SE3       29.99R VSB 1
COATESVILLE    LGT RAIN  46  46 100 E5        30.00R VSB<1/4
READING        CLOUDY    48  46  93 S7        29.99R FOG
6HR MIN TEMP:  48; 6HR MAX TEMP:  50; 6HR PCP: TRACE;

ALLENTOWN      CLOUDY    47  44  90 E5        29.98S FOG
6HR MIN TEMP:  47; 6HR MAX TEMP:  49;

MOUNT POCONO   LGT RAIN  42  41  96 SE8       29.94R VSB<1/4
6HR MIN TEMP:  40; 6HR MAX TEMP:  42; 6HR PCP:  0.01;

HAZLETON       CLOUDY    45  45 100 SE7       29.97R FOG
LEHIGHTON      CLOUDY    46  46 100 E3        29.98S FOG
WILKES BARRE   LGT RAIN  48  45  89 CALM      29.94R FOG

$$
DEZALL-MDZ008-012-015-019-020-021300-
DELAWARE AND EASTERN MARYLAND

CITY           SKY/WX    TMP DP  RH WIND       PRES   REMARKS
WILMINGTON     CLOUDY    49  48  97 E5        30.00R FOG
6HR MIN TEMP:  48; 6HR MAX TEMP:  50; 6HR PCP:  0.01;

DOVER          CLOUDY    52  52 100 E9        29.97F FOG
GEORGETOWN     FOG       51  51 100 E6        29.99S VSB 3/4
6HR MIN TEMP:  50; 6HR MAX TEMP:  52; 6HR PCP:  0.03;

EASTON         CLOUDY   N/A N/A N/A SE3       30.00F FOG
ABERDEEN       DRZL/FOG N/A N/A N/A CALM      30.00R VSB 1/2
PATUXENT       LGT RAIN  57  55  93 NE5       29.97R VSB 1/2
OCEAN CITY     FOG       52  52 100 NE5       29.99R VSB 1/4
WALLOPS ISLAND FOG       55  54  96 E9        29.98R VSB 1/4
CAMBRIDGE      CLOUDY    52  52 100 E5        29.97S
SALISBURY      FOG       54  54 100 E5        29.98R VSB 3/4

$$
PAZ001-021-NYZ056-072-MDZ011-DCZ001-021300-
OTHER NEARBY LOCATIONS

CITY           SKY/WX    TMP DP  RH WIND       PRES   REMARKS
HARRISBURG     LGT RAIN  52  50  93 SE7       29.97R VSB 3/4
STATE COLLEGE  CLOUDY    50  50 100 S3        29.88F FOG
WILLIAMSPORT   LGT RAIN  50  47  89 E5        29.93S
BINGHAMTON     HVY RAIN  45  45 100 SE6       29.90R FOG
NEW YORK CITY  CLOUDY    47  44  90 NE7       30.02F FOG
BALTIMORE      DRZL/FOG  54  54 100 N3        30.00R VSB 3/4
WASHINGTON DC  DRIZZLE   56  55  97 N9        29.99R FOG

$$




USA.gov is the U.S. government's official web portal to all federal, state and local government web resources and services.